Time,TemperatureF,DewpointF,PressureIn,WindDirection,WindDirectionDegrees,WindSpeedMPH,WindSpeedGustMPH,Humidity,HourlyPrecipIn,Conditions,Clouds,dailyrainin,SoftwareType,DateUTC
2013-02-28 00:01:00,45.5,41.3,28.13,SW,231,0.0,0.0,85,0.00,CLR,,0.00,WeatherDisplay:10.37,2013-02-28 08:01:00,
2013-02-28 00:06:00,45.5,41.3,28.13,South,182,2.3,0.0,85,0.00,CLR,,0.00,WeatherDisplay:10.37,2013-02-28 08:06:00,
2013-02-28 00:11:00,45.5,41.3,28.13,SW,221,0.0,0.0,85,0.00,CLR,,0.00,WeatherDisplay:10.37,2013-02-28 08:11:00,
2013-02-28 00:16:00,45.5,41.3,28.13,SW,221,0.0,0.0,85,0.00,CLR,,0.00,WeatherDisplay:10.37,2013-02-28 08:16:00,
2013-02-28 00:21:00,45.5,41.3,28.13,SW,221,0.0,0.0,85,0.00,CLR,,0.00,WeatherDisplay:10.37,2013-02-28 08:21:00,
2013-02-28 00:26:00,45.5,41.3,28.13,SW,221,0.0,0.0,85,0.00,CLR,,0.00,WeatherDisplay:10.37,2013-02-28 08:26:00,
2013-02-28 00:31:00,45.3,41.1,28.13,SW,221,0.0,0.0,85,0.00,CLR,,0.00,WeatherDisplay:10.37,2013-02-28 08:31:00,
2013-02-28 00:36:00,45.3,41.1,28.13,SW,221,0.0,0.0,85,0.00,CLR,,0.00,WeatherDisplay:10.37,2013-02-28 08:36:00,
2013-02-28 00:41:00,45.1,40.9,28.13,SW,221,0.0,0.0,85,0.00,CLR,,0.00,WeatherDisplay:10.37,2013-02-28 08:41:00,
2013-02-28 00:46:00,45.1,40.9,28.13,SW,221,0.0,0.0,85,0.00,CLR,,0.00,WeatherDisplay:10.37,2013-02-28 08:46:00,
2013-02-28 00:51:00,45.1,40.9,28.13,SW,221,0.0,0.0,85,0.00,CLR,,0.00,WeatherDisplay:10.37,2013-02-28 08:51:00,
2013-02-28 00:56:00,45.1,40.9,28.13,SW,221,0.0,0.0,85,0.00,CLR,,0.00,WeatherDisplay:10.37,2013-02-28 08:56:00,
2013-02-28 01:01:00,45.0,41.0,28.13,WSW,243,2.3,0.0,86,0.00,CLR,,0.00,WeatherDisplay:10.37,2013-02-28 09:01:00,
2013-02-28 01:06:00,44.8,40.8,28.13,WSW,243,0.0,0.0,86,0.00,CLR,,0.00,WeatherDisplay:10.37,2013-02-28 09:06:00,
2013-02-28 01:11:00,44.8,40.8,28.13,WSW,243,0.0,0.0,86,0.00,CLR,,0.00,WeatherDisplay:10.37,2013-02-28 09:11:00,
2013-02-28 01:16:00,44.6,40.7,28.13,WSW,243,0.0,0.0,86,0.00,CLR,,0.00,WeatherDisplay:10.37,2013-02-28 09:16:00,
2013-02-28 01:21:00,44.6,40.7,28.13,WSW,240,0.0,0.0,86,0.00,CLR,,0.00,WeatherDisplay:10.37,2013-02-28 09:21:00,
2013-02-28 01:26:00,44.6,40.7,28.13,WSW,240,0.0,0.0,86,0.00,CLR,,0.00,WeatherDisplay:10.37,2013-02-28 09:26:00,
2013-02-28 01:31:00,44.6,40.7,28.13,WSW,240,0.0,0.0,86,0.00,CLR,,0.00,WeatherDisplay:10.37,2013-02-28 09:31:00,
2013-02-28 01:36:00,44.6,40.7,28.13,WSW,240,0.0,0.0,86,0.00,CLR,,0.00,WeatherDisplay:10.37,2013-02-28 09:36:00,
2013-02-28 01:41:00,44.6,40.7,28.13,WSW,240,0.0,0.0,86,0.00,CLR,,0.00,WeatherDisplay:10.37,2013-02-28 09:41:00,
2013-02-28 01:46:00,44.8,40.8,28.13,WSW,240,0.0,0.0,86,0.00,CLR,,0.00,WeatherDisplay:10.37,2013-02-28 09:46:00,
2013-02-28 01:51:00,44.8,40.8,28.13,WSW,240,0.0,0.0,86,0.00,CLR,,0.00,WeatherDisplay:10.37,2013-02-28 09:51:00,
2013-02-28 01:56:00,44.8,40.8,28.13,WSW,240,0.0,0.0,86,0.00,CLR,,0.00,WeatherDisplay:10.37,2013-02-28 09:56:00,
2013-02-28 02:01:00,44.8,41.1,28.13,WSW,240,0.0,0.0,87,0.00,CLR,,0.00,WeatherDisplay:10.37,2013-02-28 10:01:00,
2013-02-28 02:06:00,45.0,41.3,28.13,WSW,240,0.0,0.0,87,0.00,CLR,,0.00,WeatherDisplay:10.37,2013-02-28 10:06:00,
2013-02-28 02:11:00,45.0,41.3,28.13,WSW,240,0.0,0.0,87,0.00,CLR,,0.00,WeatherDisplay:10.37,2013-02-28 10:11:00,
2013-02-28 02:16:00,45.0,41.3,28.13,WSW,240,0.0,0.0,87,0.00,CLR,,0.00,WeatherDisplay:10.37,2013-02-28 10:16:00,
2013-02-28 02:21:00,45.0,41.3,28.13,West,262,0.0,0.0,87,0.00,CLR,,0.00,WeatherDisplay:10.37,2013-02-28 10:21:00,
2013-02-28 02:26:00,44.8,41.1,28.13,West,262,0.0,0.0,87,0.00,CLR,,0.00,WeatherDisplay:10.37,2013-02-28 10:26:00,
2013-02-28 02:31:00,44.8,41.1,28.13,West,262,0.0,0.0,87,0.00,CLR,,0.00,WeatherDisplay:10.37,2013-02-28 10:31:00,
2013-02-28 02:36:00,44.8,41.1,28.13,West,262,0.0,0.0,87,0.00,CLR,,0.00,WeatherDisplay:10.37,2013-02-28 10:36:00,
2013-02-28 02:41:00,44.8,41.1,28.13,West,262,0.0,0.0,87,0.00,CLR,,0.00,WeatherDisplay:10.37,2013-02-28 10:41:00,
2013-02-28 02:46:00,44.8,41.1,28.13,West,262,0.0,0.0,87,0.00,CLR,,0.00,WeatherDisplay:10.37,2013-02-28 10:46:00,
2013-02-28 02:51:00,44.8,41.1,28.13,West,262,0.0,0.0,87,0.00,CLR,,0.00,WeatherDisplay:10.37,2013-02-28 10:51:00,
2013-02-28 02:56:00,44.8,41.1,28.13,West,262,0.0,0.0,87,0.00,CLR,,0.00,WeatherDisplay:10.37,2013-02-28 10:56:00,
2013-02-28 03:01:00,44.6,41.0,28.13,West,262,0.0,0.0,87,0.00,CLR,,0.00,WeatherDisplay:10.37,2013-02-28 11:01:00,
2013-02-28 03:06:00,44.6,41.0,28.13,West,262,0.0,0.0,87,0.00,CLR,,0.00,WeatherDisplay:10.37,2013-02-28 11:06:00,
2013-02-28 03:11:00,44.6,41.0,28.13,West,262,0.0,0.0,87,0.00,CLR,,0.00,WeatherDisplay:10.37,2013-02-28 11:11:00,
2013-02-28 03:16:00,44.6,41.0,28.13,West,262,0.0,0.0,87,0.00,CLR,,0.00,WeatherDisplay:10.37,2013-02-28 11:16:00,
2013-02-28 03:21:00,44.6,41.0,28.13,West,262,0.0,0.0,87,0.00,CLR,,0.00,WeatherDisplay:10.37,2013-02-28 11:21:00,
2013-02-28 03:26:00,44.6,41.0,28.13,West,262,0.0,0.0,87,0.00,CLR,,0.00,WeatherDisplay:10.37,2013-02-28 11:26:00,
2013-02-28 03:31:00,44.6,41.0,28.13,West,262,0.0,0.0,87,0.00,CLR,,0.00,WeatherDisplay:10.37,2013-02-28 11:31:00,
2013-02-28 03:36:00,44.6,41.0,28.13,West,262,0.0,0.0,87,0.00,CLR,,0.00,WeatherDisplay:10.37,2013-02-28 11:36:00,
2013-02-28 03:41:00,44.6,41.0,28.13,West,262,0.0,0.0,87,0.00,CLR,,0.00,WeatherDisplay:10.37,2013-02-28 11:41:00,
2013-02-28 03:46:00,44.6,41.0,28.13,West,262,0.0,0.0,87,0.00,CLR,,0.00,WeatherDisplay:10.37,2013-02-28 11:46:00,
2013-02-28 03:51:00,44.6,41.0,28.13,West,262,0.0,0.0,87,0.00,CLR,,0.00,WeatherDisplay:10.37,2013-02-28 11:51:00,
2013-02-28 03:56:00,44.6,41.0,28.13,West,262,0.0,0.0,87,0.00,CLR,,0.00,WeatherDisplay:10.37,2013-02-28 11:56:00,
2013-02-28 04:01:00,44.6,41.0,28.13,West,262,0.0,0.0,87,0.00,CLR,,0.00,WeatherDisplay:10.37,2013-02-28 12:01:00,
2013-02-28 04:06:00,44.6,41.0,28.13,West,262,0.0,0.0,87,0.00,CLR,,0.00,WeatherDisplay:10.37,2013-02-28 12:06:00,
2013-02-28 04:11:00,44.6,41.0,28.13,West,262,0.0,0.0,87,0.00,CLR,,0.00,WeatherDisplay:10.37,2013-02-28 12:11:00,
2013-02-28 04:16:00,44.6,41.0,28.13,West,262,0.0,0.0,87,0.00,CLR,,0.00,WeatherDisplay:10.37,2013-02-28 12:16:00,
2013-02-28 04:21:00,44.6,41.0,28.13,West,262,0.0,0.0,87,0.00,CLR,,0.00,WeatherDisplay:10.37,2013-02-28 12:21:00,
2013-02-28 04:26:00,44.6,41.0,28.13,West,262,0.0,0.0,87,0.00,CLR,,0.00,WeatherDisplay:10.37,2013-02-28 12:26:00,
2013-02-28 04:31:00,44.6,41.0,28.13,West,262,0.0,0.0,87,0.00,CLR,,0.00,WeatherDisplay:10.37,2013-02-28 12:31:00,
2013-02-28 04:36:00,44.6,41.0,28.13,West,262,0.0,0.0,87,0.00,CLR,,0.00,WeatherDisplay:10.37,2013-02-28 12:36:00,
2013-02-28 04:41:00,44.6,41.0,28.13,West,262,0.0,0.0,87,0.00,CLR,,0.00,WeatherDisplay:10.37,2013-02-28 12:41:00,
2013-02-28 04:46:00,44.6,41.0,28.13,WSW,241,0.0,0.0,87,0.00,CLR,,0.00,WeatherDisplay:10.37,2013-02-28 12:46:00,
2013-02-28 04:51:00,44.4,40.8,28.13,WSW,241,0.0,0.0,87,0.00,CLR,,0.00,WeatherDisplay:10.37,2013-02-28 12:51:00,
2013-02-28 04:56:00,44.4,40.8,28.13,WSW,241,0.0,0.0,87,0.00,CLR,,0.00,WeatherDisplay:10.37,2013-02-28 12:56:00,
2013-02-28 05:01:00,44.4,40.8,28.13,WSW,241,0.0,0.0,87,0.00,CLR,,0.00,WeatherDisplay:10.37,2013-02-28 13:01:00,
2013-02-28 05:06:00,44.4,40.8,28.13,WSW,241,0.0,0.0,87,0.00,CLR,,0.00,WeatherDisplay:10.37,2013-02-28 13:06:00,
2013-02-28 05:11:00,44.4,40.8,28.13,WSW,241,0.0,0.0,87,0.00,CLR,,0.00,WeatherDisplay:10.37,2013-02-28 13:11:00,
2013-02-28 05:16:00,44.4,40.8,28.13,WSW,241,0.0,0.0,87,0.00,CLR,,0.00,WeatherDisplay:10.37,2013-02-28 13:16:00,
2013-02-28 05:21:00,44.4,40.8,28.13,WSW,241,0.0,0.0,87,0.00,CLR,,0.00,WeatherDisplay:10.37,2013-02-28 13:21:00,
2013-02-28 05:26:00,44.4,40.8,28.13,WSW,241,0.0,0.0,87,0.00,CLR,,0.00,WeatherDisplay:10.37,2013-02-28 13:26:00,
2013-02-28 05:31:00,44.4,40.8,28.13,WSW,241,0.0,0.0,87,0.00,CLR,,0.00,WeatherDisplay:10.37,2013-02-28 13:31:00,
2013-02-28 05:36:00,44.4,40.8,28.13,WSW,241,0.0,0.0,87,0.00,CLR,,0.00,WeatherDisplay:10.37,2013-02-28 13:36:00,
2013-02-28 05:41:00,44.4,40.8,28.13,WSW,241,0.0,0.0,87,0.00,CLR,,0.00,WeatherDisplay:10.37,2013-02-28 13:41:00,
2013-02-28 05:46:00,44.4,40.8,28.13,WSW,241,0.0,0.0,87,0.00,CLR,,0.00,WeatherDisplay:10.37,2013-02-28 13:46:00,
2013-02-28 05:51:00,44.4,40.8,28.13,WSW,241,0.0,0.0,87,0.00,CLR,,0.00,WeatherDisplay:10.37,2013-02-28 13:51:00,
2013-02-28 05:56:00,44.4,40.8,28.13,WSW,241,0.0,0.0,87,0.00,CLR,,0.00,WeatherDisplay:10.37,2013-02-28 13:56:00,
2013-02-28 06:01:00,44.4,40.8,28.13,WSW,241,0.0,0.0,87,0.00,CLR,,0.00,WeatherDisplay:10.37,2013-02-28 14:01:00,
2013-02-28 06:06:00,44.6,41.0,28.13,WSW,241,0.0,0.0,87,0.00,CLR,,0.00,WeatherDisplay:10.37,2013-02-28 14:06:00,
2013-02-28 06:11:00,44.6,41.0,28.13,WSW,241,0.0,0.0,87,0.00,CLR,,0.00,WeatherDisplay:10.37,2013-02-28 14:11:00,
2013-02-28 06:16:00,44.6,41.0,28.13,WSW,241,0.0,0.0,87,0.00,CLR,,0.00,WeatherDisplay:10.37,2013-02-28 14:16:00,
2013-02-28 06:21:00,44.6,41.0,28.13,WSW,241,0.0,0.0,87,0.00,CLR,,0.00,WeatherDisplay:10.37,2013-02-28 14:21:00,
2013-02-28 06:27:00,44.6,41.0,28.13,WSW,241,0.0,0.0,87,0.00,CLR,,0.00,WeatherDisplay:10.37,2013-02-28 14:27:00,
2013-02-28 06:32:00,44.6,41.0,28.13,WSW,241,0.0,0.0,87,0.00,CLR,,0.00,WeatherDisplay:10.37,2013-02-28 14:32:00,
2013-02-28 06:37:00,44.6,41.0,28.13,WSW,241,0.0,0.0,87,0.00,CLR,,0.00,WeatherDisplay:10.37,2013-02-28 14:37:00,
2013-02-28 06:42:00,44.4,41.1,28.13,WSW,241,0.0,0.0,88,0.00,CLR,,0.00,WeatherDisplay:10.37,2013-02-28 14:42:00,
2013-02-28 06:47:00,44.4,41.1,28.13,WSW,241,0.0,0.0,88,0.00,CLR,,0.00,WeatherDisplay:10.37,2013-02-28 14:47:00,
2013-02-28 06:52:00,44.4,41.1,28.13,WSW,241,0.0,0.0,88,0.00,CLR,,0.00,WeatherDisplay:10.37,2013-02-28 14:52:00,
2013-02-28 06:57:00,44.4,41.1,28.13,WSW,241,0.0,0.0,88,0.00,CLR,,0.00,WeatherDisplay:10.37,2013-02-28 14:57:00,
2013-02-28 07:02:00,44.4,41.1,28.13,WSW,241,0.0,0.0,88,0.00,CLR,,0.00,WeatherDisplay:10.37,2013-02-28 15:02:00,
2013-02-28 07:07:00,44.4,41.1,28.13,WSW,241,0.0,0.0,88,0.00,CLR,,0.00,WeatherDisplay:10.37,2013-02-28 15:07:00,
2013-02-28 07:12:00,44.6,41.3,28.13,WSW,241,0.0,0.0,88,0.00,CLR,,0.00,WeatherDisplay:10.37,2013-02-28 15:12:00,
2013-02-28 07:17:00,44.6,41.3,28.13,WSW,241,0.0,0.0,88,0.00,CLR,,0.00,WeatherDisplay:10.37,2013-02-28 15:17:00,
2013-02-28 07:22:00,44.6,41.3,28.13,WSW,241,0.0,0.0,88,0.00,CLR,,0.00,WeatherDisplay:10.37,2013-02-28 15:22:00,
2013-02-28 07:27:00,44.6,41.3,28.13,WSW,241,0.0,0.0,88,0.00,CLR,,0.00,WeatherDisplay:10.37,2013-02-28 15:27:00,
2013-02-28 07:32:00,44.6,41.3,28.13,WSW,241,0.0,0.0,88,0.00,CLR,,0.00,WeatherDisplay:10.37,2013-02-28 15:32:00,
2013-02-28 07:37:00,44.8,41.4,28.13,WSW,241,0.0,0.0,88,0.00,CLR,,0.00,WeatherDisplay:10.37,2013-02-28 15:37:00,
2013-02-28 07:42:00,44.8,41.4,28.13,WSW,241,0.0,0.0,88,0.00,CLR,,0.00,WeatherDisplay:10.37,2013-02-28 15:42:00,
2013-02-28 07:47:00,44.8,41.4,28.13,WSW,241,0.0,0.0,88,0.00,CLR,,0.00,WeatherDisplay:10.37,2013-02-28 15:47:00,
2013-02-28 07:52:00,44.8,41.4,28.13,WSW,241,0.0,0.0,88,0.00,CLR,,0.00,WeatherDisplay:10.37,2013-02-28 15:52:00,
2013-02-28 07:57:00,45.0,41.9,28.13,WSW,241,0.0,0.0,89,0.00,CLR,,0.00,WeatherDisplay:10.37,2013-02-28 15:57:00,
2013-02-28 08:02:00,45.1,42.1,28.13,WSW,241,0.0,0.0,89,0.00,CLR,,0.00,WeatherDisplay:10.37,2013-02-28 16:02:00,
2013-02-28 08:07:00,45.1,42.1,28.13,WSW,241,0.0,0.0,89,0.00,CLR,,0.00,WeatherDisplay:10.37,2013-02-28 16:07:00,
2013-02-28 08:12:00,45.3,42.3,28.13,WSW,241,0.0,0.0,89,0.00,CLR,,0.00,WeatherDisplay:10.37,2013-02-28 16:12:00,
2013-02-28 08:17:00,45.7,42.6,28.13,WSW,241,0.0,0.0,89,0.00,CLR,,0.00,WeatherDisplay:10.37,2013-02-28 16:17:00,
2013-02-28 08:22:00,45.9,42.8,28.13,WSW,241,0.0,0.0,89,0.00,CLR,,0.00,WeatherDisplay:10.37,2013-02-28 16:22:00,
2013-02-28 08:27:00,46.0,43.0,28.13,WSW,241,0.0,0.0,89,0.00,CLR,,0.00,WeatherDisplay:10.37,2013-02-28 16:27:00,
2013-02-28 08:32:00,46.2,43.2,28.13,WSW,241,0.0,0.0,89,0.00,CLR,,0.00,WeatherDisplay:10.37,2013-02-28 16:32:00,
2013-02-28 08:37:00,46.4,43.3,28.13,WSW,241,0.0,0.0,89,0.00,CLR,,0.00,WeatherDisplay:10.37,2013-02-28 16:37:00,
2013-02-28 08:42:00,46.4,43.3,28.13,WSW,241,0.0,0.0,89,0.00,CLR,,0.00,WeatherDisplay:10.37,2013-02-28 16:42:00,
2013-02-28 08:47:00,46.4,43.3,28.13,WSW,241,0.0,0.0,89,0.00,CLR,,0.00,WeatherDisplay:10.37,2013-02-28 16:47:00,
2013-02-28 08:52:00,46.4,43.3,28.13,WSW,241,0.0,0.0,89,0.00,CLR,,0.00,WeatherDisplay:10.37,2013-02-28 16:52:00,
2013-02-28 08:57:00,46.6,43.8,28.13,WSW,241,0.0,0.0,90,0.00,CLR,,0.00,WeatherDisplay:10.37,2013-02-28 16:57:00,
2013-02-28 09:02:00,46.6,43.8,28.13,WSW,241,0.0,0.0,90,0.00,CLR,,0.00,WeatherDisplay:10.37,2013-02-28 17:02:00,
2013-02-28 09:07:00,46.8,44.0,28.13,WSW,241,0.0,0.0,90,0.00,CLR,,0.00,WeatherDisplay:10.37,2013-02-28 17:07:00,
2013-02-28 09:12:00,46.8,44.0,28.13,WSW,241,0.0,0.0,90,0.00,CLR,,0.00,WeatherDisplay:10.37,2013-02-28 17:12:00,
2013-02-28 09:17:00,46.9,44.2,28.13,WSW,241,0.0,0.0,90,0.00,CLR,,0.00,WeatherDisplay:10.37,2013-02-28 17:17:00,
2013-02-28 09:22:00,47.1,44.3,28.13,WSW,241,0.0,0.0,90,0.00,CLR,,0.00,WeatherDisplay:10.37,2013-02-28 17:22:00,
2013-02-28 09:27:00,47.1,44.3,28.13,WSW,241,0.0,0.0,90,0.00,CLR,,0.00,WeatherDisplay:10.37,2013-02-28 17:27:00,
2013-02-28 09:32:00,47.3,44.5,28.13,WSW,241,0.0,0.0,90,0.00,CLR,,0.00,WeatherDisplay:10.37,2013-02-28 17:32:00,
2013-02-28 09:37:00,47.3,44.5,28.13,WSW,241,0.0,0.0,90,0.00,CLR,,0.00,WeatherDisplay:10.37,2013-02-28 17:37:00,
2013-02-28 09:42:00,47.5,44.7,28.13,WSW,241,0.0,0.0,90,0.00,CLR,,0.00,WeatherDisplay:10.37,2013-02-28 17:42:00,
2013-02-28 09:47:00,47.5,44.4,28.13,WSW,241,2.3,0.0,89,0.00,CLR,,0.00,WeatherDisplay:10.37,2013-02-28 17:47:00,
2013-02-28 09:52:00,47.5,44.4,28.13,NW,309,0.0,0.0,89,0.00,CLR,,0.00,WeatherDisplay:10.37,2013-02-28 17:52:00,
2013-02-28 09:57:00,47.5,44.4,28.13,NW,309,0.0,0.0,89,0.00,CLR,,0.00,WeatherDisplay:10.37,2013-02-28 17:57:00,
2013-02-28 10:02:00,47.7,44.3,28.13,NW,309,0.0,0.0,88,0.00,CLR,,0.00,WeatherDisplay:10.37,2013-02-28 18:02:00,
2013-02-28 10:07:00,47.7,44.3,28.13,NW,309,0.0,0.0,88,0.00,CLR,,0.00,WeatherDisplay:10.37,2013-02-28 18:07:00,
2013-02-28 10:12:00,48.0,44.6,28.13,NW,309,0.0,0.0,88,0.00,CLR,,0.00,WeatherDisplay:10.37,2013-02-28 18:12:00,
2013-02-28 10:17:00,48.0,44.3,28.13,NE,41,0.0,0.0,87,0.00,CLR,,0.00,WeatherDisplay:10.37,2013-02-28 18:17:00,
2013-02-28 10:22:00,48.2,44.2,28.13,NNE,17,0.0,0.0,86,0.00,CLR,,0.00,WeatherDisplay:10.37,2013-02-28 18:22:00,
2013-02-28 10:27:00,48.4,44.4,28.13,NNW,334,0.0,0.0,86,0.00,CLR,,0.00,WeatherDisplay:10.37,2013-02-28 18:27:00,
2013-02-28 10:32:00,48.4,43.8,28.13,North,353,3.5,0.0,84,0.00,CLR,,0.00,WeatherDisplay:10.37,2013-02-28 18:32:00,
2013-02-28 10:37:00,48.6,43.9,28.13,NW,313,0.0,0.0,84,0.00,CLR,,0.00,WeatherDisplay:10.37,2013-02-28 18:37:00,
2013-02-28 10:42:00,48.6,43.6,28.13,NW,316,0.0,0.0,83,0.00,CLR,,0.00,WeatherDisplay:10.37,2013-02-28 18:42:00,
2013-02-28 10:47:00,48.7,43.8,28.13,NW,324,0.0,0.0,83,0.00,CLR,,0.00,WeatherDisplay:10.37,2013-02-28 18:47:00,
2013-02-28 10:52:00,48.7,43.8,28.13,NW,324,0.0,0.0,83,0.00,CLR,,0.00,WeatherDisplay:10.37,2013-02-28 18:52:00,
2013-02-28 10:57:00,48.9,44.0,28.13,NW,324,0.0,0.0,83,0.00,CLR,,0.00,WeatherDisplay:10.37,2013-02-28 18:57:00,
2013-02-28 11:02:00,49.1,44.2,28.13,WNW,298,0.0,0.0,83,0.00,CLR,,0.00,WeatherDisplay:10.37,2013-02-28 19:02:00,
2013-02-28 11:07:00,49.1,43.5,28.13,NW,308,3.1,0.0,81,0.00,CLR,,0.00,WeatherDisplay:10.37,2013-02-28 19:07:00,
2013-02-28 11:12:00,49.3,43.7,28.13,North,357,0.0,0.0,81,0.00,CLR,,0.00,WeatherDisplay:10.37,2013-02-28 19:12:00,
2013-02-28 11:17:00,49.5,43.9,28.13,NW,321,0.0,0.0,81,0.00,CLR,,0.00,WeatherDisplay:10.37,2013-02-28 19:17:00,
2013-02-28 11:22:00,49.6,44.0,28.13,WNW,295,2.3,0.0,81,0.00,CLR,,0.00,WeatherDisplay:10.37,2013-02-28 19:22:00,
2013-02-28 11:27:00,49.8,44.2,28.13,NW,310,0.0,0.0,81,0.00,CLR,,0.00,WeatherDisplay:10.37,2013-02-28 19:27:00,
2013-02-28 11:32:00,50.0,44.1,28.13,NW,305,0.0,0.0,80,0.00,CLR,,0.00,WeatherDisplay:10.37,2013-02-28 19:32:00,
2013-02-28 11:37:00,50.0,43.7,28.13,NW,305,3.5,0.0,79,0.00,CLR,,0.00,WeatherDisplay:10.37,2013-02-28 19:37:00,
2013-02-28 11:42:00,50.0,43.4,28.13,WNW,297,0.0,0.0,78,0.00,CLR,,0.00,WeatherDisplay:10.37,2013-02-28 19:42:00,
2013-02-28 11:47:00,50.2,43.9,28.13,NNW,333,2.3,0.0,79,0.00,CLR,,0.00,WeatherDisplay:10.37,2013-02-28 19:47:00,
2013-02-28 11:52:00,50.5,44.3,28.13,NNW,340,0.0,0.0,79,0.00,CLR,,0.00,WeatherDisplay:10.37,2013-02-28 19:52:00,
2013-02-28 11:57:00,50.7,44.1,28.13,NW,305,2.3,0.0,78,0.00,CLR,,0.00,WeatherDisplay:10.37,2013-02-28 19:57:00,
2013-02-28 12:02:00,50.7,43.4,28.13,North,7,2.3,0.0,76,0.00,CLR,,0.00,WeatherDisplay:10.37,2013-02-28 20:02:00,
2013-02-28 12:07:00,50.9,43.6,28.13,NW,319,2.3,2.3,76,0.00,CLR,,0.00,WeatherDisplay:10.37,2013-02-28 20:07:00,
2013-02-28 12:12:00,51.1,43.8,28.13,NNW,335,3.5,0.0,76,0.00,CLR,,0.00,WeatherDisplay:10.37,2013-02-28 20:12:00,
2013-02-28 12:17:00,50.9,43.6,28.13,NW,326,0.0,0.0,76,0.00,CLR,,0.00,WeatherDisplay:10.37,2013-02-28 20:17:00,
2013-02-28 12:22:00,50.9,43.6,28.13,NW,326,3.5,0.0,76,0.00,CLR,,0.00,WeatherDisplay:10.37,2013-02-28 20:22:00,
2013-02-28 12:27:00,50.9,43.6,28.13,NNW,327,3.5,0.0,76,0.00,CLR,,0.00,WeatherDisplay:10.37,2013-02-28 20:27:00,
2013-02-28 12:32:00,50.9,43.6,28.13,NNW,327,0.0,0.0,76,0.00,CLR,,0.00,WeatherDisplay:10.37,2013-02-28 20:32:00,
2013-02-28 12:37:00,51.3,44.0,28.13,NNW,327,2.3,0.0,76,0.00,CLR,,0.00,WeatherDisplay:10.37,2013-02-28 20:37:00,
2013-02-28 12:42:00,51.4,43.8,28.13,NW,310,0.0,0.0,75,0.00,CLR,,0.00,WeatherDisplay:10.37,2013-02-28 20:42:00,
2013-02-28 12:47:00,51.4,43.8,28.13,NW,310,0.0,0.0,75,0.00,CLR,,0.00,WeatherDisplay:10.37,2013-02-28 20:47:00,
2013-02-28 12:52:00,51.4,43.8,28.13,NW,310,0.0,0.0,75,0.00,CLR,,0.00,WeatherDisplay:10.37,2013-02-28 20:52:00,
2013-02-28 12:57:00,51.8,44.1,28.13,NW,310,0.0,0.0,75,0.00,CLR,,0.00,WeatherDisplay:10.37,2013-02-28 20:57:00,
2013-02-28 13:02:00,51.8,43.8,28.13,NW,310,0.0,0.0,74,0.00,CLR,,0.00,WeatherDisplay:10.37,2013-02-28 21:02:00,
2013-02-28 13:07:00,52.0,43.9,28.13,WNW,292,3.5,3.5,74,0.00,CLR,,0.00,WeatherDisplay:10.37,2013-02-28 21:07:00,
2013-02-28 13:13:00,52.0,43.9,28.13,WNW,292,0.0,0.0,74,0.00,CLR,,0.00,WeatherDisplay:10.37,2013-02-28 21:13:00,
2013-02-28 13:18:00,52.0,43.9,28.13,WNW,292,0.0,0.0,74,0.00,CLR,,0.00,WeatherDisplay:10.37,2013-02-28 21:18:00,
2013-02-28 13:23:00,52.0,43.6,28.13,WNW,292,2.3,0.0,73,0.00,CLR,,0.00,WeatherDisplay:10.37,2013-02-28 21:23:00,
2013-02-28 13:28:00,51.8,43.4,28.13,WNW,292,0.0,0.0,73,0.00,CLR,,0.00,WeatherDisplay:10.37,2013-02-28 21:28:00,
2013-02-28 13:33:00,51.8,43.4,28.13,WNW,293,3.5,0.0,73,0.00,CLR,,0.00,WeatherDisplay:10.37,2013-02-28 21:33:00,
2013-02-28 13:38:00,51.8,43.4,28.13,WNW,292,0.0,0.0,73,0.00,CLR,,0.00,WeatherDisplay:10.37,2013-02-28 21:38:00,
2013-02-28 13:43:00,51.8,43.8,28.13,WNW,293,0.0,0.0,74,0.00,CLR,,0.00,WeatherDisplay:10.37,2013-02-28 21:43:00,
2013-02-28 13:48:00,52.0,43.9,28.13,WNW,292,0.0,0.0,74,0.00,CLR,,0.00,WeatherDisplay:10.37,2013-02-28 21:48:00,
2013-02-28 13:53:00,52.2,43.8,28.13,WNW,293,0.0,0.0,73,0.00,CLR,,0.00,WeatherDisplay:10.37,2013-02-28 21:53:00,
2013-02-28 13:58:00,52.2,43.8,28.13,West,263,2.3,0.0,73,0.00,CLR,,0.00,WeatherDisplay:10.37,2013-02-28 21:58:00,
2013-02-28 14:03:00,52.2,43.8,28.13,West,278,3.5,3.5,73,0.00,CLR,,0.00,WeatherDisplay:10.37,2013-02-28 22:03:00,
2013-02-28 14:08:00,52.3,43.9,28.13,West,278,0.0,0.0,73,0.00,CLR,,0.00,WeatherDisplay:10.37,2013-02-28 22:08:00,
2013-02-28 14:13:00,52.7,44.3,28.13,West,278,0.0,0.0,73,0.00,CLR,,0.00,WeatherDisplay:10.37,2013-02-28 22:13:00,
2013-02-28 14:18:00,53.1,44.6,28.13,West,263,2.3,2.3,73,0.00,CLR,,0.00,WeatherDisplay:10.37,2013-02-28 22:18:00,
2013-02-28 14:23:00,53.1,44.6,28.13,WNW,302,0.0,0.0,73,0.00,CLR,,0.00,WeatherDisplay:10.37,2013-02-28 22:23:00,
2013-02-28 14:28:00,53.1,44.6,28.13,West,263,0.0,0.0,73,0.00,CLR,,0.00,WeatherDisplay:10.37,2013-02-28 22:28:00,
2013-02-28 14:33:00,53.1,44.6,28.13,NW,321,0.0,0.0,73,0.00,CLR,,0.00,WeatherDisplay:10.37,2013-02-28 22:33:00,
2013-02-28 14:38:00,53.1,44.6,28.13,NW,313,3.5,0.0,73,0.00,CLR,,0.00,WeatherDisplay:10.37,2013-02-28 22:38:00,
2013-02-28 14:43:00,53.1,44.6,28.13,WNW,295,3.5,3.5,73,0.00,CLR,,0.00,WeatherDisplay:10.37,2013-02-28 22:43:00,
2013-02-28 14:48:00,53.1,44.6,28.13,NW,313,2.3,0.0,73,0.00,CLR,,0.00,WeatherDisplay:10.37,2013-02-28 22:48:00,
2013-02-28 14:53:00,53.2,44.8,28.13,WNW,295,2.3,2.3,73,0.00,CLR,,0.00,WeatherDisplay:10.37,2013-02-28 22:53:00,
2013-02-28 14:58:00,53.4,45.0,28.13,NW,309,3.5,0.0,73,0.00,CLR,,0.00,WeatherDisplay:10.37,2013-02-28 22:58:00,
2013-02-28 15:03:00,53.6,45.2,28.13,NNE,16,2.3,0.0,73,0.00,CLR,,0.00,WeatherDisplay:10.37,2013-02-28 23:03:00,
2013-02-28 15:08:00,53.8,45.3,28.13,NNE,16,2.3,0.0,73,0.00,CLR,,0.00,WeatherDisplay:10.37,2013-02-28 23:08:00,
2013-02-28 15:13:00,53.8,45.3,28.13,NW,326,0.0,0.0,73,0.00,CLR,,0.00,WeatherDisplay:10.37,2013-02-28 23:13:00,
2013-02-28 15:18:00,54.0,45.5,28.13,NW,313,3.5,3.5,73,0.00,CLR,,0.00,WeatherDisplay:10.37,2013-02-28 23:18:00,
2013-02-28 15:23:00,54.0,45.5,28.13,North,350,0.0,0.0,73,0.00,CLR,,0.00,WeatherDisplay:10.37,2013-02-28 23:23:00,
2013-02-28 15:28:00,54.1,45.3,28.13,WNW,286,3.5,3.5,72,0.00,CLR,,0.00,WeatherDisplay:10.37,2013-02-28 23:28:00,
2013-02-28 15:33:00,54.1,45.7,28.13,NNW,346,3.5,0.0,73,0.00,CLR,,0.00,WeatherDisplay:10.37,2013-02-28 23:33:00,
2013-02-28 15:38:00,54.3,45.5,28.13,NNW,346,0.0,0.0,72,0.00,CLR,,0.00,WeatherDisplay:10.37,2013-02-28 23:38:00,
2013-02-28 15:43:00,54.3,45.5,28.13,WNW,300,3.5,0.0,72,0.00,CLR,,0.00,WeatherDisplay:10.37,2013-02-28 23:43:00,
2013-02-28 15:48:00,54.1,45.3,28.13,WNW,292,3.5,3.5,72,0.00,CLR,,0.00,WeatherDisplay:10.37,2013-02-28 23:48:00,
2013-02-28 15:53:00,53.8,45.0,28.13,WNW,288,0.0,0.0,72,0.00,CLR,,0.00,WeatherDisplay:10.37,2013-02-28 23:53:00,
2013-02-28 15:58:00,53.8,45.0,28.13,NW,305,2.3,2.3,72,0.00,CLR,,0.00,WeatherDisplay:10.37,2013-02-28 23:58:00,
2013-02-28 16:03:00,53.8,45.0,28.13,WNW,293,3.5,3.5,72,0.00,CLR,,0.00,WeatherDisplay:10.37,2013-03-01 00:03:00,
2013-02-28 16:08:00,54.0,45.5,28.13,NW,325,4.6,4.6,73,0.00,CLR,,0.00,WeatherDisplay:10.37,2013-03-01 00:08:00,
2013-02-28 16:13:00,54.0,45.5,28.13,NW,324,3.5,3.5,73,0.00,CLR,,0.00,WeatherDisplay:10.37,2013-03-01 00:13:00,
2013-02-28 16:18:00,53.8,45.3,28.13,WNW,301,3.5,3.5,73,0.00,CLR,,0.00,WeatherDisplay:10.37,2013-03-01 00:18:00,
2013-02-28 16:23:00,53.6,45.2,28.13,NW,326,3.5,3.5,73,0.00,CLR,,0.00,WeatherDisplay:10.37,2013-03-01 00:23:00,
2013-02-28 16:28:00,53.4,45.3,28.13,NW,310,4.6,4.6,74,0.00,CLR,,0.00,WeatherDisplay:10.37,2013-03-01 00:28:00,
2013-02-28 16:33:00,53.4,45.7,28.13,NW,305,3.5,3.5,75,0.00,CLR,,0.00,WeatherDisplay:10.37,2013-03-01 00:33:00,
2013-02-28 16:38:00,53.2,45.5,28.13,NW,321,3.5,0.0,75,0.00,CLR,,0.00,WeatherDisplay:10.37,2013-03-01 00:38:00,
2013-02-28 16:43:00,53.2,45.5,28.13,NW,307,2.3,2.3,75,0.00,CLR,,0.00,WeatherDisplay:10.37,2013-03-01 00:43:00,
2013-02-28 16:48:00,53.2,45.9,28.13,NW,318,3.5,3.5,76,0.00,CLR,,0.00,WeatherDisplay:10.37,2013-03-01 00:48:00,
2013-02-28 16:53:00,53.1,45.7,28.13,NNW,348,2.3,0.0,76,0.00,CLR,,0.00,WeatherDisplay:10.37,2013-03-01 00:53:00,
2013-02-28 16:58:00,53.1,45.7,28.13,NNW,328,3.5,0.0,76,0.00,CLR,,0.00,WeatherDisplay:10.37,2013-03-01 00:58:00,
2013-02-28 17:03:00,53.1,45.7,28.13,WNW,300,3.5,3.6,76,0.00,CLR,,0.00,WeatherDisplay:10.37,2013-03-01 01:03:00,
2013-02-28 17:08:00,52.9,45.9,28.13,WNW,303,3.5,3.5,77,0.00,CLR,,0.00,WeatherDisplay:10.37,2013-03-01 01:08:00,
2013-02-28 17:13:00,52.5,45.5,28.13,NW,325,3.5,3.5,77,0.00,CLR,,0.00,WeatherDisplay:10.37,2013-03-01 01:13:00,
2013-02-28 17:18:00,52.3,45.7,28.13,NW,320,3.5,0.0,78,0.00,CLR,,0.00,WeatherDisplay:10.37,2013-03-01 01:18:00,
2013-02-28 17:23:00,52.2,46.2,28.13,WNW,302,3.6,3.6,80,0.00,CLR,,0.00,WeatherDisplay:10.37,2013-03-01 01:23:00,
2013-02-28 17:28:00,51.8,46.2,28.13,NW,326,2.3,0.0,81,0.00,CLR,,0.00,WeatherDisplay:10.37,2013-03-01 01:28:00,
2013-02-28 17:33:00,51.6,46.3,28.13,NW,325,3.1,0.0,82,0.00,CLR,,0.00,WeatherDisplay:10.37,2013-03-01 01:33:00,
2013-02-28 17:38:00,51.3,46.3,28.13,NW,314,2.3,0.0,83,0.00,CLR,,0.00,WeatherDisplay:10.37,2013-03-01 01:38:00,
2013-02-28 17:43:00,51.1,46.4,28.13,NW,307,3.5,3.5,84,0.00,CLR,,0.00,WeatherDisplay:10.37,2013-03-01 01:43:00,
2013-02-28 17:48:00,50.9,46.2,28.13,WNW,300,2.3,0.0,84,0.00,CLR,,0.00,WeatherDisplay:10.37,2013-03-01 01:48:00,
2013-02-28 17:53:00,50.7,46.4,28.13,NW,313,2.3,0.0,85,0.00,CLR,,0.00,WeatherDisplay:10.37,2013-03-01 01:53:00,
2013-02-28 17:59:00,50.7,46.7,28.13,NW,313,0.0,0.0,86,0.00,CLR,,0.00,WeatherDisplay:10.37,2013-03-01 01:59:00,
2013-02-28 18:04:00,50.5,46.8,28.13,NW,313,0.0,0.0,87,0.00,CLR,,0.00,WeatherDisplay:10.37,2013-03-01 02:04:00,
2013-02-28 18:09:00,50.5,46.8,28.13,NW,313,0.0,0.0,87,0.00,CLR,,0.00,WeatherDisplay:10.37,2013-03-01 02:09:00,
2013-02-28 18:14:00,50.4,46.6,28.13,NW,313,0.0,0.0,87,0.08,RA,,0.08,WeatherDisplay:10.37,2013-03-01 02:14:00,
2013-02-28 18:19:00,50.4,46.6,28.13,NW,313,0.0,0.0,87,0.08,RA,,0.08,WeatherDisplay:10.37,2013-03-01 02:19:00,
2013-02-28 18:24:00,50.4,46.6,28.13,NW,313,0.0,0.0,87,0.08,CLR,,0.08,WeatherDisplay:10.37,2013-03-01 02:24:00,
2013-02-28 18:29:00,50.4,46.6,28.13,NW,313,0.0,0.0,87,0.08,CLR,,0.08,WeatherDisplay:10.37,2013-03-01 02:29:00,
2013-02-28 18:34:00,50.4,46.6,28.13,NW,313,0.0,0.0,87,0.08,CLR,,0.08,WeatherDisplay:10.37,2013-03-01 02:34:00,
2013-02-28 18:39:00,50.4,46.9,28.13,NW,313,0.0,0.0,88,0.08,CLR,,0.08,WeatherDisplay:10.37,2013-03-01 02:39:00,
2013-02-28 18:44:00,50.4,46.9,28.13,NW,313,0.0,0.0,88,0.08,CLR,,0.08,WeatherDisplay:10.37,2013-03-01 02:44:00,
2013-02-28 18:49:00,50.4,46.9,28.13,NW,313,0.0,0.0,88,0.08,CLR,,0.08,WeatherDisplay:10.37,2013-03-01 02:49:00,
2013-02-28 18:54:00,50.4,46.9,28.13,NW,313,0.0,0.0,88,0.08,CLR,,0.08,WeatherDisplay:10.37,2013-03-01 02:54:00,
2013-02-28 18:59:00,50.2,46.8,28.13,NW,313,0.0,0.0,88,0.08,CLR,,0.08,WeatherDisplay:10.37,2013-03-01 02:59:00,
2013-02-28 19:04:00,50.2,46.8,28.13,NW,313,0.0,0.0,88,0.08,CLR,,0.08,WeatherDisplay:10.37,2013-03-01 03:04:00,
2013-02-28 19:09:00,50.2,46.8,28.13,NW,313,0.0,0.0,88,0.08,CLR,,0.08,WeatherDisplay:10.37,2013-03-01 03:09:00,
2013-02-28 19:14:00,50.2,46.8,28.13,NW,313,0.0,0.0,88,0.00,CLR,,0.08,WeatherDisplay:10.37,2013-03-01 03:14:00,
2013-02-28 19:19:00,50.2,46.8,28.13,NW,313,0.0,0.0,88,0.00,CLR,,0.08,WeatherDisplay:10.37,2013-03-01 03:19:00,
2013-02-28 19:24:00,50.2,46.8,28.13,NW,313,0.0,0.0,88,0.00,CLR,,0.08,WeatherDisplay:10.37,2013-03-01 03:24:00,
2013-02-28 19:29:00,50.2,47.1,28.13,NW,313,0.0,0.0,89,0.00,CLR,,0.08,WeatherDisplay:10.37,2013-03-01 03:29:00,
2013-02-28 19:34:00,50.2,47.1,28.13,NW,313,0.0,0.0,89,0.00,CLR,,0.08,WeatherDisplay:10.37,2013-03-01 03:34:00,
2013-02-28 19:39:00,50.2,47.1,28.13,NW,313,0.0,0.0,89,0.00,CLR,,0.08,WeatherDisplay:10.37,2013-03-01 03:39:00,
2013-02-28 19:44:00,50.2,47.1,28.13,NW,313,0.0,0.0,89,0.00,CLR,,0.08,WeatherDisplay:10.37,2013-03-01 03:44:00,
2013-02-28 19:49:00,50.2,47.1,28.13,NW,313,0.0,0.0,89,0.00,CLR,,0.08,WeatherDisplay:10.37,2013-03-01 03:49:00,
2013-02-28 19:54:00,50.2,47.1,28.13,NW,313,0.0,0.0,89,0.00,CLR,,0.08,WeatherDisplay:10.37,2013-03-01 03:54:00,
2013-02-28 19:59:00,50.2,47.1,28.13,NW,313,0.0,0.0,89,0.00,CLR,,0.08,WeatherDisplay:10.37,2013-03-01 03:59:00,
2013-02-28 20:04:00,50.2,47.1,28.13,NW,313,0.0,0.0,89,0.00,CLR,,0.08,WeatherDisplay:10.37,2013-03-01 04:04:00,
2013-02-28 20:09:00,50.2,47.1,28.13,NW,313,0.0,0.0,89,0.00,CLR,,0.08,WeatherDisplay:10.37,2013-03-01 04:09:00,
2013-02-28 20:14:00,50.2,47.1,28.13,NW,313,0.0,0.0,89,0.00,CLR,,0.08,WeatherDisplay:10.37,2013-03-01 04:14:00,
2013-02-28 20:19:00,50.2,47.1,28.13,NW,313,0.0,0.0,89,0.00,CLR,,0.08,WeatherDisplay:10.37,2013-03-01 04:19:00,
2013-02-28 20:24:00,50.2,47.1,28.13,NW,313,0.0,0.0,89,0.04,RA,,0.12,WeatherDisplay:10.37,2013-03-01 04:24:00,
2013-02-28 20:29:00,50.2,47.1,28.13,NW,313,0.0,0.0,89,0.04,RA,,0.12,WeatherDisplay:10.37,2013-03-01 04:29:00,
2013-02-28 20:34:00,50.0,46.9,28.13,NW,313,0.0,0.0,89,0.04,CLR,,0.12,WeatherDisplay:10.37,2013-03-01 04:34:00,
2013-02-28 20:39:00,50.0,46.9,28.13,NW,313,0.0,0.0,89,0.04,CLR,,0.12,WeatherDisplay:10.37,2013-03-01 04:39:00,
2013-02-28 20:44:00,50.0,46.9,28.13,NW,313,0.0,0.0,89,0.04,CLR,,0.12,WeatherDisplay:10.37,2013-03-01 04:44:00,
2013-02-28 20:49:00,50.0,46.9,28.13,NW,313,0.0,0.0,89,0.04,CLR,,0.12,WeatherDisplay:10.37,2013-03-01 04:49:00,
2013-02-28 20:54:00,50.0,46.9,28.13,NW,313,0.0,0.0,89,0.04,CLR,,0.12,WeatherDisplay:10.37,2013-03-01 04:54:00,
2013-02-28 20:59:00,50.0,46.9,28.13,NW,313,0.0,0.0,89,0.04,CLR,,0.12,WeatherDisplay:10.37,2013-03-01 04:59:00,
2013-02-28 21:00:00,50.0,46.9,28.13,NW,313,0.0,0.0,89,0.04,CLR,,0.12,WeatherDisplay:10.37,2013-03-01 05:00:00,
2013-02-28 21:05:00,50.0,46.9,28.13,NW,313,0.0,0.0,89,0.04,CLR,,0.12,WeatherDisplay:10.37,2013-03-01 05:05:00,
2013-02-28 21:06:00,50.0,47.2,28.13,NW,313,0.0,0.0,90,0.04,CLR,,0.12,WeatherDisplay:10.37,2013-03-01 05:06:00,
2013-02-28 21:11:00,49.8,47.0,28.13,NW,313,0.0,0.0,90,0.04,CLR,,0.12,WeatherDisplay:10.37,2013-03-01 05:11:00,
2013-02-28 21:16:00,49.8,47.0,28.13,NW,313,0.0,0.0,90,0.04,CLR,,0.12,WeatherDisplay:10.37,2013-03-01 05:16:00,
2013-02-28 21:21:00,49.8,47.0,28.13,NW,313,0.0,0.0,90,0.04,CLR,,0.12,WeatherDisplay:10.37,2013-03-01 05:21:00,
2013-02-28 21:26:00,49.8,47.0,28.13,NW,313,0.0,0.0,90,0.00,CLR,,0.12,WeatherDisplay:10.37,2013-03-01 05:26:00,
2013-02-28 21:31:00,49.8,47.0,28.13,NW,313,0.0,0.0,90,0.00,CLR,,0.12,WeatherDisplay:10.37,2013-03-01 05:31:00,
2013-02-28 21:36:00,49.8,47.0,28.13,NW,313,0.0,0.0,90,0.00,CLR,,0.12,WeatherDisplay:10.37,2013-03-01 05:36:00,
2013-02-28 21:41:00,49.8,47.0,28.13,NW,313,0.0,0.0,90,0.00,CLR,,0.12,WeatherDisplay:10.37,2013-03-01 05:41:00,
2013-02-28 21:46:00,49.8,47.3,28.13,NW,313,0.0,0.0,91,0.00,CLR,,0.12,WeatherDisplay:10.37,2013-03-01 05:46:00,
2013-02-28 21:51:00,49.8,47.3,28.13,NW,313,0.0,0.0,91,0.00,CLR,,0.12,WeatherDisplay:10.37,2013-03-01 05:51:00,
2013-02-28 21:56:00,49.8,47.3,28.13,NW,313,0.0,0.0,91,0.00,CLR,,0.12,WeatherDisplay:10.37,2013-03-01 05:56:00,
2013-02-28 22:01:00,49.6,47.1,28.13,NW,313,0.0,0.0,91,0.00,CLR,,0.12,WeatherDisplay:10.37,2013-03-01 06:01:00,
2013-02-28 22:06:00,49.6,47.1,28.13,NW,313,0.0,0.0,91,0.00,CLR,,0.12,WeatherDisplay:10.37,2013-03-01 06:06:00,
2013-02-28 22:11:00,49.6,47.1,28.13,NW,313,0.0,0.0,91,0.00,CLR,,0.12,WeatherDisplay:10.37,2013-03-01 06:11:00,
2013-02-28 22:16:00,49.6,47.1,28.13,NW,313,0.0,0.0,91,0.00,CLR,,0.12,WeatherDisplay:10.37,2013-03-01 06:16:00,
2013-02-28 22:21:00,49.5,46.9,28.13,NW,313,0.0,0.0,91,0.00,CLR,,0.12,WeatherDisplay:10.37,2013-03-01 06:21:00,
2013-02-28 22:26:00,49.5,46.9,28.13,NW,313,0.0,0.0,91,0.00,CLR,,0.12,WeatherDisplay:10.37,2013-03-01 06:26:00,
2013-02-28 22:31:00,49.5,46.9,28.13,NW,313,0.0,0.0,91,0.00,CLR,,0.12,WeatherDisplay:10.37,2013-03-01 06:31:00,
2013-02-28 22:36:00,49.5,46.9,28.13,NW,313,0.0,0.0,91,0.00,CLR,,0.12,WeatherDisplay:10.37,2013-03-01 06:36:00,
2013-02-28 22:41:00,49.5,46.9,28.13,NW,313,0.0,0.0,91,0.00,CLR,,0.12,WeatherDisplay:10.37,2013-03-01 06:41:00,
2013-02-28 22:46:00,49.5,46.9,28.13,NW,313,0.0,0.0,91,0.00,CLR,,0.12,WeatherDisplay:10.37,2013-03-01 06:46:00,
2013-02-28 22:51:00,49.5,46.9,28.13,NW,313,0.0,0.0,91,0.00,CLR,,0.12,WeatherDisplay:10.37,2013-03-01 06:51:00,
2013-02-28 22:56:00,49.5,46.9,28.13,NW,313,0.0,0.0,91,0.00,CLR,,0.12,WeatherDisplay:10.37,2013-03-01 06:56:00,
2013-02-28 23:01:00,49.3,46.8,28.13,NW,313,0.0,0.0,91,0.00,CLR,,0.12,WeatherDisplay:10.37,2013-03-01 07:01:00,
2013-02-28 23:06:00,49.3,46.8,28.13,NW,313,0.0,0.0,91,0.00,CLR,,0.12,WeatherDisplay:10.37,2013-03-01 07:06:00,
2013-02-28 23:11:00,49.3,46.8,28.13,NW,313,0.0,0.0,91,0.00,CLR,,0.12,WeatherDisplay:10.37,2013-03-01 07:11:00,
2013-02-28 23:16:00,49.3,46.8,28.13,NW,313,0.0,0.0,91,0.00,CLR,,0.12,WeatherDisplay:10.37,2013-03-01 07:16:00,
2013-02-28 23:21:00,49.3,46.8,28.13,NW,313,0.0,0.0,91,0.00,CLR,,0.12,WeatherDisplay:10.37,2013-03-01 07:21:00,
2013-02-28 23:26:00,49.3,46.8,28.13,NW,313,0.0,0.0,91,0.00,CLR,,0.12,WeatherDisplay:10.37,2013-03-01 07:26:00,
2013-02-28 23:31:00,49.1,46.6,28.13,NW,313,0.0,0.0,91,0.00,CLR,,0.12,WeatherDisplay:10.37,2013-03-01 07:31:00,
2013-02-28 23:36:00,48.9,46.4,28.13,NW,313,0.0,0.0,91,0.00,CLR,,0.12,WeatherDisplay:10.37,2013-03-01 07:36:00,
2013-02-28 23:41:00,48.7,46.2,28.13,NW,313,0.0,0.0,91,0.00,CLR,,0.12,WeatherDisplay:10.37,2013-03-01 07:41:00,
2013-02-28 23:46:00,48.9,46.4,28.13,NW,313,0.0,0.0,91,0.00,CLR,,0.12,WeatherDisplay:10.37,2013-03-01 07:46:00,
2013-02-28 23:51:00,48.9,46.7,28.13,NW,313,0.0,0.0,92,0.00,CLR,,0.12,WeatherDisplay:10.37,2013-03-01 07:51:00,
2013-02-28 23:56:00,48.9,46.7,28.13,NW,313,0.0,0.0,92,0.00,CLR,,0.12,WeatherDisplay:10.37,2013-03-01 07:56:00,